Weather History for Rolla, MO

Change the Weather History Date:

Saturday, July 13, 2013

  Actual Average Record
Temperature  
Mean Temperature 70 °F 77 °F  
Max Temperature 82 °F 88 °F 112 °F (1901)
Min Temperature 57 °F 67 °F 49 °F (1898)
Degree Days  
Heating Degree Days 0 0  
Month to date heating degree days 0 0  
Since 1 June heating degree days 17 14  
Since 1 July heating degree days 0 0  
Cooling Degree Days 5 12  
Month to date cooling degree days 108 152  
Year to date cooling degree days 432 494  
Since 1 June cooling degree days 325 387  
Growing Degree Days 20 (Base 50)    
Moisture  
Dew Point 59 °F    
Average Humidity 70    
Maximum Humidity 93    
Minimum Humidity 47    
Precipitation  
Precipitation 0.00 in 0.15 in 1.30 in (1952)
Month to date precipitation 1.29 1.87  
Year to date precipitation 26.38 23.31  
Sea Level Pressure  
Sea Level Pressure 30.04 in    
Wind  
Wind Speed 6 mph (East)    
Max Wind Speed 10 mph    
Max Gust Speed 15 mph    
Visibility 10 miles    
Events      
T = Trace of Precipitation, MM = Missing Value Source: NWS Daily Summary

Daily Weather History Graph

Daily Weather History Graph

Search for Another Location

Airport:

Trip Planner

Search our weather history database for the weather conditions in past years. The results will help you decide how hot, cold, wet, or windy it might be!

Date:

Astronomy

Jul. 13, 2013 Rise Set
Actual Time 5:54 AM CDT 8:30 PM CDT
Civil Twilight 5:24 AM CDT 9:01 PM CDT
Nautical Twilight 4:45 AM CDT 9:39 PM CDT
Astronomical Twilight 4:03 AM CDT 10:21 PM CDT
Moon 11:05 AM CDT (7/13) 11:17 PM CDT (7/13)
Length of Visible Light 15h 36m
Length of Day
14h 35m
Waxing Crescent, 26% of the Moon is Illuminated
Jul 13
Waxing Crescent
Jul 15
First Quarter
Jul 22
Full
Jul 29
Last Quarter
Aug 6
New

Hourly Weather History & Observations

Time (CDT) Temp. Heat Index Dew Point Humidity Pressure Visibility Wind Dir Wind Speed Gust Speed Precip Events Conditions
12:53 AM 63.0 °F - 57.0 °F 81% 30.04 in 10.0 mi ESE 8.1 mph - N/A   Clear
1:53 AM 63.0 °F - 57.0 °F 81% 30.04 in 10.0 mi ESE 9.2 mph - N/A   Clear
2:53 AM 63.0 °F - 57.0 °F 81% 30.05 in 10.0 mi ESE 8.1 mph - N/A   Clear
3:53 AM 62.1 °F - 55.9 °F 80% 30.05 in 10.0 mi ESE 5.8 mph - N/A   Clear
4:53 AM 60.1 °F - 55.9 °F 86% 30.04 in 10.0 mi SE 5.8 mph - N/A   Clear
5:53 AM 57.0 °F - 55.0 °F 93% 30.05 in 10.0 mi Calm Calm - N/A   Clear
6:53 AM 62.1 °F - 57.9 °F 86% 30.06 in 10.0 mi Calm Calm - N/A   Clear
7:53 AM 69.1 °F - 59.0 °F 70% 30.07 in 10.0 mi SE 5.8 mph - N/A   Clear
8:53 AM 72.0 °F - 61.0 °F 68% 30.09 in 10.0 mi SE 5.8 mph - N/A   Clear
9:53 AM 75.0 °F - 60.1 °F 60% 30.08 in 10.0 mi SSE 5.8 mph - N/A   Clear
10:53 AM 77.0 °F - 59.0 °F 54% 30.08 in 10.0 mi SE 3.5 mph - N/A   Clear
11:53 AM 79.0 °F - 59.0 °F 50% 30.06 in 10.0 mi NNW 3.5 mph - N/A   Clear
12:53 PM 81.0 °F 81.7 °F 61.0 °F 50% 30.06 in 10.0 mi Variable 3.5 mph - N/A   Clear
1:53 PM 82.0 °F 82.7 °F 61.0 °F 49% 30.04 in 10.0 mi NE 6.9 mph - N/A   Clear
2:53 PM 80.1 °F 81.1 °F 61.0 °F 52% 30.03 in 10.0 mi NE 4.6 mph - N/A   Clear
3:53 PM 81.0 °F 81.9 °F 62.1 °F 52% 30.03 in 10.0 mi NE 8.1 mph - N/A   Clear
4:53 PM 80.1 °F 81.2 °F 62.1 °F 54% 30.02 in 10.0 mi ENE 6.9 mph - N/A   Partly Cloudy
5:53 PM 81.0 °F 81.7 °F 61.0 °F 50% 30.01 in 10.0 mi East 9.2 mph - N/A   Scattered Clouds
6:53 PM 77.0 °F - 61.0 °F 58% 30.00 in 10.0 mi ENE 5.8 mph - N/A   Partly Cloudy
7:53 PM 75.0 °F - 60.1 °F 60% 30.00 in 10.0 mi East 4.6 mph - N/A   Clear
8:53 PM 71.1 °F - 60.1 °F 68% 30.00 in 10.0 mi East 5.8 mph - N/A   Clear
9:53 PM 70.0 °F - 60.1 °F 71% 30.02 in 10.0 mi ENE 4.6 mph - N/A   Clear
10:53 PM 69.1 °F - 60.1 °F 73% 30.03 in 10.0 mi East 5.8 mph - N/A   Clear
11:53 PM 66.9 °F - 60.1 °F 79% 30.03 in 10.0 mi East 5.8 mph - N/A   Clear